| time (UTC) | temp F | wind direction | speed knots | gust knots | rain 1hr in | rain 24hr in | rain mn in | humidity % | barometer mb |
| 20260509123906 | 51 | 67 | 0.9 | 1.7 | 0.07 | 0.13 | 0.00 | 99 | 987.6 |
| 20260509122906 | 51 | 80 | 0.9 | 1.7 | 0.07 | 0.13 | 0.00 | 99 | 987.7 |
| 20260509121906 | 51 | 72 | 1.7 | 1.7 | 0.07 | 0.13 | 0.00 | 99 | 987.4 |
| 20260509120905 | 50 | 84 | 0.9 | 1.7 | 0.07 | 0.13 | 0.00 | 99 | 987.4 |
| 20260509115905 | 50 | 51 | 1.7 | 2.6 | 0.00 | 0.07 | 0.07 | 99 | 987.3 |
| 20260509114906 | 49 | 77 | 1.7 | 2.6 | 0.00 | 0.07 | 0.07 | 99 | 987.3 |
| 20260509113906 | 49 | 77 | 1.7 | 2.6 | 0.00 | 0.07 | 0.07 | 98 | 987.5 |
| 20260509112907 | 49 | 87 | 1.7 | 2.6 | 0.00 | 0.07 | 0.07 | 98 | 987.7 |
| 20260509105906 | 49 | 63 | 1.7 | 1.7 | 0.00 | 0.07 | 0.07 | 98 | 987.8 |
| 20260509104906 | 49 | 86 | 1.7 | 2.6 | 0.00 | 0.07 | 0.07 | 97 | 987.9 |
| 20260509103906 | 49 | 102 | 0.9 | 2.6 | 0.00 | 0.07 | 0.07 | 97 | 987.7 |
| 20260509102904 | 49 | 79 | 1.7 | 1.7 | 0.00 | 0.07 | 0.07 | 97 | 987.8 |
| 20260509101905 | 50 | 78 | 0.9 | 1.7 | 0.00 | 0.07 | 0.07 | 97 | 987.7 |
| 20260509100907 | 50 | 81 | 1.7 | 1.7 | 0.00 | 0.07 | 0.07 | 96 | 987.8 |
| 20260509095911 | 50 | 70 | 0.9 | 2.6 | 0.00 | 0.07 | 0.07 | 96 | 987.9 |
| 20260509094913 | 50 | 68 | 1.7 | 2.6 | 0.00 | 0.07 | 0.07 | 96 | 988.0 |
| 20260509094149 | 51 | 73 | 0.9 | 1.7 | 0.00 | 0.07 | 0.07 | 97 | 988.4 |
| 20260509093309 | 51 | 82 | 0.9 | 1.7 | 0.00 | 0.07 | 0.07 | 97 | 988.5 |
| 20260509093254 | 51 | 85 | 0.9 | 1.7 | 0.00 | 0.07 | 0.07 | 97 | 988.4 |
| 20260509092915 | 51 | 81 | 0.9 | 1.7 | 0.00 | 0.07 | 0.07 | 97 | 988.4 |
| 20260509091905 | 51 | 82 | 1.7 | 1.7 | 0.00 | 0.07 | 0.07 | 97 | 988.5 |
| 20260509090906 | 52 | 81 | 1.7 | 1.7 | 0.00 | 0.07 | 0.07 | 97 | 988.5 |
| 20260509085909 | 52 | 78 | 1.7 | 1.7 | 0.00 | 0.07 | 0.07 | 97 | 988.6 |
| 20260509084907 | 52 | 82 | 0.9 | 1.7 | 0.00 | 0.08 | 0.07 | 97 | 988.8 |
| 20260509083905 | 51 | 102 | 0.9 | 1.7 | 0.00 | 0.09 | 0.07 | 97 | 988.5 |
| 20260509082907 | 51 | 106 | 0.9 | 1.7 | 0.00 | 0.09 | 0.07 | 96 | 988.6 |
| 20260509081906 | 52 | 100 | 0.9 | 1.7 | 0.00 | 0.09 | 0.07 | 96 | 988.2 |
| 20260509075906 | 52 | 78 | 1.7 | 1.7 | 0.00 | 0.10 | 0.07 | 95 | 987.9 |
| 20260509074905 | 52 | 80 | 0.9 | 2.6 | 0.00 | 0.10 | 0.07 | 95 | 987.6 |
| 20260509072904 | 52 | 73 | 1.7 | 1.7 | 0.00 | 0.11 | 0.07 | 96 | 987.4 |
| 20260509071907 | 52 | 73 | 1.7 | 1.7 | 0.00 | 0.13 | 0.07 | 96 | 987.5 |
| 20260509070906 | 52 | 74 | 1.7 | 2.6 | 0.00 | 0.13 | 0.07 | 96 | 987.3 |
| 20260509065907 | 52 | 81 | 0.9 | 1.7 | 0.00 | 0.14 | 0.07 | 96 | 987.4 |
| 20260509064906 | 53 | 105 | 0.9 | 2.6 | 0.00 | 0.14 | 0.07 | 96 | 987.2 |
| 20260509063906 | 53 | 69 | 1.7 | 2.6 | 0.00 | 0.15 | 0.07 | 96 | 987.1 |
| 20260509062905 | 53 | 66 | 0.9 | 2.6 | 0.00 | 0.15 | 0.07 | 96 | 987.2 |
| 20260509060906 | 53 | 80 | 1.7 | 2.6 | 0.00 | 0.15 | 0.07 | 95 | 987.0 |
| 20260509052906 | 54 | 55 | 1.7 | 4.3 | 0.00 | 0.17 | 0.07 | 94 | 986.5 |
| 20260509045905 | 55 | 67 | 0.9 | 1.7 | 0.00 | 0.17 | 0.07 | 92 | 986.2 |
| 20260509044907 | 55 | 79 | 1.7 | 1.7 | 0.00 | 0.17 | 0.07 | 91 | 986.1 |
| 20260509044322 | 56 | 79 | 0.9 | 0.0 | 0.00 | 0.17 | 0.07 | 90 | 986.2 |
| 20260509044312 | 56 | 79 | 0.9 | 1.7 | 0.00 | 0.17 | 0.07 | 90 | 986.2 |
| 20260509043905 | 56 | 78 | 0.9 | 1.7 | 0.00 | 0.17 | 0.07 | 90 | 986.1 |
| 20260509013906 | 60 | 38 | 0.9 | 1.7 | 0.00 | 0.17 | 0.07 | 82 | 986.7 |
| 20260509012906 | 59 | 49 | 1.7 | 2.6 | 0.00 | 0.17 | 0.07 | 85 | 986.7 |
| 20260509011906 | 59 | 73 | 0.9 | 2.6 | 0.00 | 0.17 | 0.07 | 83 | 986.8 |
| 20260509010905 | 60 | 58 | 1.7 | 2.6 | 0.00 | 0.17 | 0.07 | 81 | 986.9 |
| 20260509004911 | 58 | 47 | 1.7 | 2.6 | 0.00 | 0.17 | 0.07 | 83 | 987.4 |
| 20260509003905 | 56 | 71 | 0.9 | 1.7 | 0.00 | 0.17 | 0.07 | 86 | 987.3 |
| 20260509002905 | 56 | 47 | 1.7 | 1.7 | 0.00 | 0.17 | 0.07 | 87 | 987.6 |
| 20260509000906 | 55 | 48 | 1.7 | 2.6 | 0.00 | 0.17 | 0.07 | 90 | 988.0 |
| 20260508235906 | 55 | 55 | 1.7 | 2.6 | 0.00 | 0.17 | 0.07 | 88 | 988.1 |
| 20260508234905 | 54 | 66 | 1.7 | 1.7 | 0.00 | 0.17 | 0.07 | 92 | 988.4 |
| 20260508233906 | 53 | 57 | 0.9 | 1.7 | 0.00 | 0.17 | 0.07 | 93 | 988.3 |
| 20260508232905 | 53 | 70 | 0.9 | 1.7 | 0.00 | 0.17 | 0.07 | 93 | 988.4 |
| 20260508231905 | 52 | 77 | 0.9 | 1.7 | 0.00 | 0.17 | 0.07 | 92 | 988.6 |
| 20260508230906 | 52 | 77 | 0.9 | 2.6 | 0.00 | 0.17 | 0.07 | 92 | 988.8 |
| 20260508225906 | 51 | 77 | 1.7 | 1.7 | 0.00 | 0.17 | 0.07 | 91 | 988.6 |
| 20260508224905 | 51 | 83 | 0.9 | 1.7 | 0.00 | 0.17 | 0.07 | 95 | 988.6 |
| 20260508223906 | 51 | 65 | 0.9 | 1.7 | 0.00 | 0.17 | 0.07 | 96 | 988.4 |
| 20260508222905 | 51 | 70 | 1.7 | 1.7 | 0.00 | 0.17 | 0.07 | 95 | 988.5 |
| 20260508221907 | 51 | 69 | 0.9 | 1.7 | 0.00 | 0.17 | 0.07 | 94 | 988.3 |
| 20260508220905 | 51 | 71 | 0.9 | 1.7 | 0.00 | 0.17 | 0.07 | 95 | 988.7 |
| 20260508215906 | 51 | 76 | 1.7 | 1.7 | 0.00 | 0.17 | 0.07 | 95 | 988.6 |
| 20260508214905 | 50 | 74 | 0.9 | 1.7 | 0.00 | 0.17 | 0.07 | 95 | 988.8 |
| 20260508213906 | 51 | 64 | 0.9 | 1.7 | 0.00 | 0.16 | 0.06 | 98 | 989.1 |
| 20260508212906 | 52 | 83 | 1.7 | 1.7 | 0.00 | 0.16 | 0.06 | 99 | 988.9 |
| 20260508211906 | 51 | 59 | 1.7 | 1.7 | 0.00 | 0.16 | 0.06 | 99 | 988.7 |
| 20260508210906 | 50 | 95 | 1.7 | 1.7 | 0.00 | 0.16 | 0.06 | 99 | 989.1 |
| 20260508205911 | 50 | 91 | 0.9 | 1.7 | 0.00 | 0.16 | 0.06 | 99 | 989.0 |
| 20260508204906 | 50 | 67 | 1.7 | 1.7 | 0.00 | 0.16 | 0.06 | 99 | 989.0 |
| 20260508203907 | 50 | 81 | 1.7 | 1.7 | 0.00 | 0.16 | 0.06 | 99 | 989.0 |
| 20260508202905 | 50 | 87 | 0.9 | 1.7 | 0.00 | 0.16 | 0.06 | 99 | 988.7 |
| 20260508201907 | 50 | 82 | 0.9 | 1.7 | 0.00 | 0.16 | 0.06 | 99 | 988.7 |
| 20260508200905 | 50 | 79 | 1.7 | 1.7 | 0.00 | 0.16 | 0.06 | 99 | 988.4 |
| 20260508195912 | 50 | 74 | 1.7 | 1.7 | 0.00 | 0.16 | 0.06 | 99 | 988.2 |
| 20260508194906 | 50 | 75 | 1.7 | 1.7 | 0.00 | 0.16 | 0.06 | 99 | 987.9 |
| 20260508192906 | 50 | 112 | 0.9 | 1.7 | 0.00 | 0.16 | 0.06 | 99 | 987.4 |
| 20260508191905 | 50 | 74 | 1.7 | 2.6 | 0.00 | 0.16 | 0.06 | 99 | 987.0 |
| 20260508190906 | 50 | 68 | 1.7 | 2.6 | 0.00 | 0.16 | 0.06 | 99 | 987.1 |
| 20260508183906 | 50 | 70 | 1.7 | 1.7 | 0.01 | 0.16 | 0.06 | 99 | 986.5 |
| 20260508182906 | 50 | 72 | 0.9 | 1.7 | 0.00 | 0.16 | 0.06 | 99 | 986.2 |
| 20260508181905 | 50 | 87 | 0.9 | 1.7 | 0.00 | 0.16 | 0.06 | 99 | 986.3 |
| 20260508175905 | 51 | 66 | 1.7 | 1.7 | 0.00 | 0.15 | 0.06 | 99 | 986.3 |
| 20260508174906 | 51 | 73 | 1.7 | 1.7 | 0.00 | 0.15 | 0.06 | 99 | 986.3 |
| 20260508173906 | 51 | 79 | 0.9 | 1.7 | 0.00 | 0.15 | 0.06 | 99 | 985.9 |
| 20260508172906 | 51 | 80 | 1.7 | 1.7 | 0.00 | 0.15 | 0.06 | 99 | 986.0 |
| 20260508171906 | 51 | 93 | 1.7 | 1.7 | 0.00 | 0.15 | 0.06 | 99 | 985.7 |
| 20260508170906 | 51 | 76 | 1.7 | 1.7 | 0.00 | 0.15 | 0.06 | 99 | 985.6 |
| 20260508165907 | 51 | 74 | 0.9 | 1.7 | 0.00 | 0.15 | 0.06 | 99 | 985.3 |
| 20260508164905 | 51 | 82 | 0.9 | 1.7 | 0.01 | 0.15 | 0.06 | 99 | 985.0 |
| 20260508162911 | 51 | 82 | 0.9 | 1.7 | 0.02 | 0.15 | 0.06 | 99 | 984.8 |
| 20260508160906 | 51 | 90 | 0.9 | 1.7 | 0.02 | 0.15 | 0.05 | 99 | 984.4 |
| 20260508155906 | 51 | 86 | 0.9 | 1.7 | 0.02 | 0.15 | 0.05 | 99 | 984.4 |
| 20260508154905 | 51 | 85 | 0.9 | 1.7 | 0.02 | 0.15 | 0.05 | 99 | 984.3 |
| 20260508153907 | 51 | 89 | 0.9 | 1.7 | 0.03 | 0.14 | 0.04 | 99 | 984.1 |
| 20260508152905 | 51 | 72 | 1.7 | 1.7 | 0.04 | 0.15 | 0.04 | 99 | 984.2 |
| 20260508151905 | 51 | 75 | 0.9 | 1.7 | 0.04 | 0.15 | 0.04 | 99 | 984.2 |
| 20260508150912 | 52 | 79 | 1.7 | 1.7 | 0.04 | 0.15 | 0.04 | 99 | 984.2 |
| 20260508145905 | 52 | 88 | 0.9 | 1.7 | 0.03 | 0.15 | 0.03 | 99 | 984.0 |
| 20260508144905 | 52 | 78 | 0.9 | 1.7 | 0.02 | 0.14 | 0.02 | 99 | 983.7 |
| 20260508143905 | 52 | 86 | 0.9 | 1.7 | 0.01 | 0.12 | 0.01 | 99 | 983.9 |
| 20260508142911 | 52 | 81 | 0.9 | 1.7 | 0.00 | 0.11 | 0.00 | 99 | 983.6 |
| 20260508141906 | 51 | 82 | 0.9 | 1.7 | 0.00 | 0.11 | 0.00 | 99 | 983.8 |
| 20260508140905 | 51 | 81 | 0.0 | 1.7 | 0.00 | 0.11 | 0.00 | 99 | 983.6 |
| 20260508135906 | 51 | 77 | 1.7 | 1.7 | 0.00 | 0.11 | 0.00 | 99 | 983.7 |
| 20260508134905 | 51 | 97 | 1.7 | 1.7 | 0.00 | 0.11 | 0.00 | 99 | 983.5 |
| 20260508133905 | 51 | 72 | 1.7 | 2.6 | 0.00 | 0.11 | 0.00 | 99 | 983.5 |
| 20260508132905 | 51 | 76 | 1.7 | 1.7 | 0.00 | 0.11 | 0.00 | 99 | 983.0 |
| 20260508131905 | 51 | 83 | 1.7 | 1.7 | 0.00 | 0.11 | 0.00 | 99 | 983.1 |
| 20260508130905 | 51 | 79 | 1.7 | 1.7 | 0.00 | 0.11 | 0.00 | 99 | 982.8 |
| 20260508125905 | 51 | 95 | 0.9 | 2.6 | 0.00 | 0.11 | 0.00 | 99 | 982.4 |